Time,TemperatureF,DewpointF,PressureIn,WindDirection,WindDirectionDegrees,WindSpeedMPH,WindSpeedGustMPH,Humidity,HourlyPrecipIn,Conditions,Clouds,dailyrainin,SoftwareType,DateUTC
2013-08-12 00:03:00,79.7,69.4,29.20,South,184,4.0,8.3,71,0.00,,,0.00,LWC V2.10 B1813,2013-08-12 05:03:00,
2013-08-12 00:08:00,79.5,68.9,29.20,SSE,153,2.2,6.7,70,0.00,,,0.00,LWC V2.10 B1813,2013-08-12 05:08:00,
2013-08-12 00:13:00,79.5,69.3,29.20,SE,135,4.0,7.6,71,0.00,,,0.00,LWC V2.10 B1813,2013-08-12 05:13:00,
2013-08-12 00:18:00,79.3,69.1,29.20,SSE,168,4.9,4.9,71,0.00,,,0.00,LWC V2.10 B1813,2013-08-12 05:18:00,
2013-08-12 00:23:00,79.3,69.1,29.20,SE,141,2.7,5.4,71,0.00,,,0.00,LWC V2.10 B1813,2013-08-12 05:23:00,
2013-08-12 00:28:00,79.2,68.9,29.20,SE,145,4.0,7.6,71,0.00,,,0.00,LWC V2.10 B1813,2013-08-12 05:28:00,
2013-08-12 00:33:00,79.2,68.9,29.20,East,100,3.6,5.8,71,0.00,,,0.00,LWC V2.10 B1813,2013-08-12 05:33:00,
2013-08-12 00:38:00,79.0,68.8,29.20,SSE,151,3.6,5.4,71,0.00,,,0.00,LWC V2.10 B1813,2013-08-12 05:38:00,
2013-08-12 00:43:00,79.0,68.8,29.20,SSE,148,3.1,5.4,71,0.00,,,0.00,LWC V2.10 B1813,2013-08-12 05:43:00,
2013-08-12 00:48:00,79.0,68.8,29.20,ESE,116,3.6,4.0,71,0.00,,,0.00,LWC V2.10 B1813,2013-08-12 05:48:00,
2013-08-12 00:53:00,78.8,68.6,29.20,SSW,197,4.0,4.0,71,0.00,,,0.00,LWC V2.10 B1813,2013-08-12 05:53:00,
2013-08-12 00:58:00,78.6,68.8,29.20,East,101,5.4,5.4,72,0.00,,,0.00,LWC V2.10 B1813,2013-08-12 05:58:00,
2013-08-12 01:03:00,78.6,68.8,29.20,SE,135,0.0,4.0,72,0.00,,,0.00,LWC V2.10 B1813,2013-08-12 06:03:00,
2013-08-12 01:08:00,78.4,68.6,29.20,South,179,2.7,3.6,72,0.00,,,0.00,LWC V2.10 B1813,2013-08-12 06:08:00,
2013-08-12 01:13:00,78.4,68.6,29.20,SSE,159,3.1,4.0,72,0.00,,,0.00,LWC V2.10 B1813,2013-08-12 06:13:00,
2013-08-12 01:18:00,78.3,68.5,29.20,SE,124,3.6,4.9,72,0.00,,,0.00,LWC V2.10 B1813,2013-08-12 06:18:00,
2013-08-12 01:23:00,78.1,68.7,29.20,ESE,115,4.0,5.4,73,0.00,,,0.00,LWC V2.10 B1813,2013-08-12 06:23:00,
2013-08-12 01:28:00,77.9,68.5,29.20,SSE,148,3.1,5.4,73,0.00,,,0.00,LWC V2.10 B1813,2013-08-12 06:28:00,
2013-08-12 01:33:00,77.9,68.5,29.20,SE,127,3.1,5.8,73,0.00,,,0.00,LWC V2.10 B1813,2013-08-12 06:33:00,
2013-08-12 01:38:00,77.7,68.8,29.20,SE,146,3.6,4.9,74,0.00,,,0.00,LWC V2.10 B1813,2013-08-12 06:38:00,
2013-08-12 01:43:00,77.7,68.8,29.20,SSE,153,3.6,5.4,74,0.00,,,0.00,LWC V2.10 B1813,2013-08-12 06:43:00,
2013-08-12 01:48:00,77.7,69.1,29.20,ESE,107,4.0,5.8,75,0.00,,,0.00,LWC V2.10 B1813,2013-08-12 06:48:00,
2013-08-12 01:53:00,77.7,69.1,29.20,SSE,160,5.4,7.6,75,0.00,,,0.00,LWC V2.10 B1813,2013-08-12 06:53:00,
2013-08-12 01:58:00,77.5,69.4,29.20,SE,137,8.3,8.3,76,0.00,,,0.00,LWC V2.10 B1813,2013-08-12 06:58:00,
2013-08-12 02:03:00,77.5,69.4,29.20,South,174,4.0,5.4,76,0.00,,,0.00,LWC V2.10 B1813,2013-08-12 07:03:00,
2013-08-12 02:08:00,77.4,69.2,29.20,South,187,3.1,4.9,76,0.00,,,0.00,LWC V2.10 B1813,2013-08-12 07:08:00,
2013-08-12 02:13:00,77.4,69.6,29.20,South,186,2.7,4.9,77,0.00,,,0.00,LWC V2.10 B1813,2013-08-12 07:13:00,
2013-08-12 02:18:00,77.4,69.6,29.20,SE,141,2.7,5.4,77,0.00,,,0.00,LWC V2.10 B1813,2013-08-12 07:18:00,
2013-08-12 02:23:00,77.4,69.6,29.20,SE,140,3.6,4.9,77,0.00,,,0.00,LWC V2.10 B1813,2013-08-12 07:23:00,
2013-08-12 02:28:00,77.4,69.6,29.20,South,170,4.0,6.3,77,0.00,,,0.00,LWC V2.10 B1813,2013-08-12 07:28:00,
2013-08-12 02:33:00,77.2,69.8,29.20,South,172,4.0,4.9,78,0.00,,,0.00,LWC V2.10 B1813,2013-08-12 07:33:00,
2013-08-12 02:38:00,77.2,69.4,29.20,South,169,2.2,3.6,77,0.00,,,0.00,LWC V2.10 B1813,2013-08-12 07:38:00,
2013-08-12 02:43:00,77.0,69.6,29.20,South,187,5.4,5.4,78,0.00,,,0.00,LWC V2.10 B1813,2013-08-12 07:43:00,
2013-08-12 02:48:00,77.0,69.2,29.20,South,172,3.1,3.6,77,0.00,,,0.00,LWC V2.10 B1813,2013-08-12 07:48:00,
2013-08-12 02:53:00,76.8,69.4,29.20,South,171,2.2,3.1,78,0.00,,,0.00,LWC V2.10 B1813,2013-08-12 07:53:00,
2013-08-12 02:58:00,76.8,69.4,29.20,SE,135,0.0,3.1,78,0.00,,,0.00,LWC V2.10 B1813,2013-08-12 07:58:00,
2013-08-12 03:03:00,76.6,69.2,29.20,South,186,5.4,5.4,78,0.00,,,0.00,LWC V2.10 B1813,2013-08-12 08:03:00,
2013-08-12 03:08:00,76.5,69.4,29.20,SE,142,3.1,3.6,79,0.00,,,0.00,LWC V2.10 B1813,2013-08-12 08:08:00,
2013-08-12 03:13:00,76.5,69.4,29.20,SSE,167,2.2,4.0,79,0.00,,,0.00,LWC V2.10 B1813,2013-08-12 08:13:00,
2013-08-12 03:18:00,76.5,69.4,29.20,SSE,159,2.7,4.5,79,0.00,,,0.00,LWC V2.10 B1813,2013-08-12 08:18:00,
2013-08-12 03:23:00,76.5,69.4,29.20,South,183,2.7,3.1,79,0.00,,,0.00,LWC V2.10 B1813,2013-08-12 08:23:00,
2013-08-12 03:28:00,76.5,69.4,29.20,SSW,193,3.1,3.6,79,0.00,,,0.00,LWC V2.10 B1813,2013-08-12 08:28:00,
2013-08-12 03:33:00,76.5,69.4,29.20,South,187,0.0,2.7,79,0.00,,,0.00,LWC V2.10 B1813,2013-08-12 08:33:00,
2013-08-12 03:35:00,76.5,69.4,29.20,South,187,0.0,0.0,79,0.00,,,0.00,LWC V2.10 B1813,2013-08-12 08:35:00,
2013-08-12 03:40:00,76.5,69.4,29.20,South,187,0.0,0.0,79,0.00,,,0.00,LWC V2.10 B1813,2013-08-12 08:40:00,
2013-08-12 03:45:00,76.3,69.3,29.20,South,187,0.0,0.0,79,0.00,,,0.00,LWC V2.10 B1813,2013-08-12 08:45:00,
2013-08-12 03:50:00,76.1,69.1,29.20,SE,143,0.0,2.7,79,0.00,,,0.00,LWC V2.10 B1813,2013-08-12 08:50:00,
2013-08-12 03:55:00,76.1,69.1,29.20,SE,145,0.0,0.0,79,0.00,,,0.00,LWC V2.10 B1813,2013-08-12 08:55:00,
2013-08-12 04:00:00,76.1,69.1,29.20,SE,145,0.0,0.0,79,0.00,,,0.00,LWC V2.10 B1813,2013-08-12 09:00:00,
2013-08-12 04:05:00,75.9,68.9,29.20,SE,145,0.0,0.0,79,0.00,,,0.00,LWC V2.10 B1813,2013-08-12 09:05:00,
2013-08-12 04:10:00,75.7,69.1,29.20,SSE,159,0.0,0.0,80,0.00,,,0.00,LWC V2.10 B1813,2013-08-12 09:10:00,
2013-08-12 04:15:00,75.6,68.9,29.20,SSE,159,0.0,0.0,80,0.00,,,0.00,LWC V2.10 B1813,2013-08-12 09:15:00,
2013-08-12 04:20:00,75.4,68.8,29.20,SSE,160,0.0,2.2,80,0.00,,,0.00,LWC V2.10 B1813,2013-08-12 09:20:00,
2013-08-12 04:25:00,75.2,68.6,29.20,SE,124,0.0,0.0,80,0.00,,,0.00,LWC V2.10 B1813,2013-08-12 09:25:00,
2013-08-12 04:30:00,75.2,68.6,29.20,SE,143,2.7,3.1,80,0.00,,,0.00,LWC V2.10 B1813,2013-08-12 09:30:00,
2013-08-12 04:35:00,75.0,68.8,29.20,SSE,147,2.7,3.1,81,0.00,,,0.00,LWC V2.10 B1813,2013-08-12 09:35:00,
2013-08-12 04:40:00,74.8,69.0,29.20,SE,135,4.9,4.9,82,0.00,,,0.00,LWC V2.10 B1813,2013-08-12 09:40:00,
2013-08-12 04:45:00,74.8,69.0,29.20,ESE,106,2.7,3.6,82,0.00,,,0.00,LWC V2.10 B1813,2013-08-12 09:45:00,
2013-08-12 04:50:00,74.8,69.0,29.20,SE,131,3.1,4.5,82,0.00,,,0.00,LWC V2.10 B1813,2013-08-12 09:50:00,
2013-08-12 04:55:00,74.7,69.1,29.20,ESE,123,3.1,4.0,83,0.00,,,0.00,LWC V2.10 B1813,2013-08-12 09:55:00,
2013-08-12 05:00:00,74.5,69.0,29.20,ESE,113,3.1,4.0,83,0.00,,,0.00,LWC V2.10 B1813,2013-08-12 10:00:00,
2013-08-12 05:05:00,74.7,69.1,29.20,SE,127,2.7,4.0,83,0.00,,,0.00,LWC V2.10 B1813,2013-08-12 10:05:00,
2013-08-12 05:10:00,74.7,69.5,29.20,SE,134,3.6,4.0,84,0.00,,,0.00,LWC V2.10 B1813,2013-08-12 10:10:00,
2013-08-12 05:14:00,74.7,69.5,29.20,SE,142,4.9,4.9,84,0.00,,,0.00,LWC V2.10 B1813,2013-08-12 10:14:00,
2013-08-12 05:19:00,74.5,69.3,29.20,ESE,120,3.1,4.0,84,0.00,,,0.00,LWC V2.10 B1813,2013-08-12 10:19:00,
2013-08-12 05:24:00,74.5,69.3,29.20,SE,128,3.6,4.5,84,0.00,,,0.00,LWC V2.10 B1813,2013-08-12 10:24:00,
2013-08-12 05:29:00,74.5,69.3,29.20,ESE,105,4.9,4.9,84,0.00,,,0.00,LWC V2.10 B1813,2013-08-12 10:29:00,
2013-08-12 05:34:00,74.5,69.3,29.20,SE,130,2.7,3.6,84,0.00,,,0.00,LWC V2.10 B1813,2013-08-12 10:34:00,
2013-08-12 05:39:00,74.5,69.7,29.20,East,95,4.0,5.4,85,0.00,,,0.00,LWC V2.10 B1813,2013-08-12 10:39:00,
2013-08-12 05:44:00,74.5,69.7,29.20,SSE,166,5.4,6.7,85,0.00,,,0.00,LWC V2.10 B1813,2013-08-12 10:44:00,
2013-08-12 05:49:00,74.5,69.7,29.20,ESE,102,2.7,5.4,85,0.00,,,0.00,LWC V2.10 B1813,2013-08-12 10:49:00,
2013-08-12 05:54:00,74.5,69.7,29.20,SSE,160,2.7,5.8,85,0.00,,,0.00,LWC V2.10 B1813,2013-08-12 10:54:00,
2013-08-12 05:59:00,74.5,70.0,29.20,South,184,3.6,4.9,86,0.00,,,0.00,LWC V2.10 B1813,2013-08-12 10:59:00,
2013-08-12 06:04:00,74.7,70.2,29.20,SSE,153,4.9,4.9,86,0.00,,,0.00,LWC V2.10 B1813,2013-08-12 11:04:00,
2013-08-12 06:09:00,74.5,70.0,29.20,SSE,162,2.7,5.4,86,0.00,,,0.00,LWC V2.10 B1813,2013-08-12 11:09:00,
2013-08-12 06:14:00,74.5,70.0,29.20,SSE,167,5.8,5.8,86,0.00,,,0.00,LWC V2.10 B1813,2013-08-12 11:14:00,
2013-08-12 06:19:00,74.5,70.0,29.20,SSE,151,5.8,5.8,86,0.00,,,0.00,LWC V2.10 B1813,2013-08-12 11:19:00,
2013-08-12 06:24:00,74.3,69.8,29.20,South,187,5.8,5.8,86,0.00,,,0.00,LWC V2.10 B1813,2013-08-12 11:24:00,
2013-08-12 06:29:00,74.3,69.8,29.20,SSE,158,4.9,6.3,86,0.00,,,0.00,LWC V2.10 B1813,2013-08-12 11:29:00,
2013-08-12 06:34:00,74.3,69.8,29.20,South,171,3.6,5.8,86,0.00,,,0.00,LWC V2.10 B1813,2013-08-12 11:34:00,
2013-08-12 06:39:00,74.1,70.0,29.20,SSE,162,4.0,4.0,87,0.00,,,0.00,LWC V2.10 B1813,2013-08-12 11:39:00,
2013-08-12 06:44:00,74.1,70.0,29.20,SSE,147,3.1,5.8,87,0.00,,,0.00,LWC V2.10 B1813,2013-08-12 11:44:00,
2013-08-12 06:49:00,74.1,70.0,29.20,South,171,2.2,5.8,87,0.00,,,0.00,LWC V2.10 B1813,2013-08-12 11:49:00,
2013-08-12 06:54:00,74.1,70.0,29.20,SSE,149,4.0,6.3,87,0.00,,,0.00,LWC V2.10 B1813,2013-08-12 11:54:00,
2013-08-12 06:59:00,74.1,70.0,29.20,SE,129,3.1,5.8,87,0.00,,,0.00,LWC V2.10 B1813,2013-08-12 11:59:00,
2013-08-12 07:04:00,74.1,70.0,29.20,South,170,4.0,5.4,87,0.00,,,0.00,LWC V2.10 B1813,2013-08-12 12:04:00,
2013-08-12 07:09:00,74.1,70.0,29.20,South,174,3.1,6.7,87,0.00,,,0.00,LWC V2.10 B1813,2013-08-12 12:09:00,
2013-08-12 07:14:00,74.1,70.0,29.20,South,170,4.0,5.4,87,0.00,,,0.00,LWC V2.10 B1813,2013-08-12 12:14:00,
2013-08-12 07:19:00,74.1,70.3,29.20,SSE,157,3.1,5.8,88,0.00,,,0.00,LWC V2.10 B1813,2013-08-12 12:19:00,
2013-08-12 07:24:00,74.1,70.0,29.20,South,180,3.6,4.0,87,0.00,,,0.00,LWC V2.10 B1813,2013-08-12 12:24:00,
2013-08-12 07:29:00,74.1,70.0,29.20,SSW,213,3.1,6.3,87,0.00,,,0.00,LWC V2.10 B1813,2013-08-12 12:29:00,
2013-08-12 07:34:00,74.3,70.2,29.20,SSE,167,2.2,5.4,87,0.00,,,0.00,LWC V2.10 B1813,2013-08-12 12:34:00,
2013-08-12 07:39:00,74.3,70.2,29.20,South,182,3.6,5.8,87,0.00,,,0.00,LWC V2.10 B1813,2013-08-12 12:39:00,
2013-08-12 07:44:00,74.5,70.7,29.20,South,172,3.6,5.4,88,0.00,,,0.00,LWC V2.10 B1813,2013-08-12 12:44:00,
2013-08-12 07:49:00,74.7,70.9,29.20,South,172,4.0,6.3,88,0.00,,,0.00,LWC V2.10 B1813,2013-08-12 12:49:00,
2013-08-12 07:54:00,74.8,70.7,29.20,South,174,3.1,4.9,87,0.00,,,0.00,LWC V2.10 B1813,2013-08-12 12:54:00,
2013-08-12 07:59:00,75.0,70.9,29.20,South,186,3.6,8.3,87,0.00,,,0.00,LWC V2.10 B1813,2013-08-12 12:59:00,
2013-08-12 08:04:00,75.0,70.9,29.24,SSW,194,6.3,7.6,87,0.00,,,0.00,LWC V2.10 B1813,2013-08-12 13:04:00,
2013-08-12 08:09:00,75.4,71.2,29.24,SSW,198,3.1,5.8,87,0.00,,,0.00,LWC V2.10 B1813,2013-08-12 13:09:00,
2013-08-12 08:14:00,75.7,71.2,29.24,SW,221,5.4,8.1,86,0.00,,,0.00,LWC V2.10 B1813,2013-08-12 13:14:00,
2013-08-12 08:19:00,75.9,71.4,29.24,SSE,166,3.6,6.3,86,0.00,,,0.00,LWC V2.10 B1813,2013-08-12 13:19:00,
2013-08-12 08:24:00,75.9,71.1,29.24,SSE,167,6.3,6.3,85,0.00,,,0.00,LWC V2.10 B1813,2013-08-12 13:24:00,
2013-08-12 08:29:00,76.3,71.4,29.24,SSE,159,2.7,5.4,85,0.00,,,0.00,LWC V2.10 B1813,2013-08-12 13:29:00,
2013-08-12 08:34:00,76.5,71.3,29.24,SSW,200,3.6,6.3,84,0.00,,,0.00,LWC V2.10 B1813,2013-08-12 13:34:00,
2013-08-12 08:39:00,76.8,71.2,29.24,South,187,4.0,5.8,83,0.00,,,0.00,LWC V2.10 B1813,2013-08-12 13:39:00,
2013-08-12 08:44:00,77.0,71.1,29.24,SSW,193,3.6,7.6,82,0.00,,,0.00,LWC V2.10 B1813,2013-08-12 13:44:00,
2013-08-12 08:49:00,77.2,70.5,29.24,SSW,212,8.1,8.1,80,0.00,,,0.00,LWC V2.10 B1813,2013-08-12 13:49:00,
2013-08-12 08:54:00,77.4,70.7,29.24,South,189,5.4,5.4,80,0.00,,,0.00,LWC V2.10 B1813,2013-08-12 13:54:00,
2013-08-12 08:59:00,77.7,70.7,29.24,SSW,211,3.6,6.3,79,0.00,,,0.00,LWC V2.10 B1813,2013-08-12 13:59:00,
2013-08-12 09:04:00,78.1,70.6,29.24,SSW,193,5.8,7.6,78,0.00,,,0.00,LWC V2.10 B1813,2013-08-12 14:04:00,
2013-08-12 09:09:00,78.3,70.8,29.24,South,187,4.9,5.8,78,0.00,,,0.00,LWC V2.10 B1813,2013-08-12 14:09:00,
2013-08-12 09:14:00,78.6,70.4,29.24,SSW,192,5.4,8.3,76,0.00,,,0.00,LWC V2.10 B1813,2013-08-12 14:14:00,
2013-08-12 09:19:00,78.6,70.4,29.24,SSW,213,5.4,6.3,76,0.00,,,0.00,LWC V2.10 B1813,2013-08-12 14:19:00,
2013-08-12 09:24:00,79.5,70.9,29.24,SSW,192,4.0,5.8,75,0.00,,,0.00,LWC V2.10 B1813,2013-08-12 14:24:00,
2013-08-12 09:29:00,79.7,70.7,29.24,SW,219,3.1,4.0,74,0.00,,,0.00,LWC V2.10 B1813,2013-08-12 14:29:00,
2013-08-12 09:34:00,80.6,70.7,29.24,SSW,210,6.3,6.3,72,0.00,,,0.00,LWC V2.10 B1813,2013-08-12 14:34:00,
2013-08-12 09:39:00,80.4,70.1,29.24,SSW,197,5.4,6.3,71,0.00,,,0.00,LWC V2.10 B1813,2013-08-12 14:39:00,
2013-08-12 09:44:00,81.1,70.0,29.24,SW,222,4.0,8.1,69,0.00,,,0.00,LWC V2.10 B1813,2013-08-12 14:44:00,
2013-08-12 09:49:00,80.4,69.3,29.24,South,173,6.3,6.3,69,0.00,,,0.00,LWC V2.10 B1813,2013-08-12 14:49:00,
2013-08-12 09:54:00,80.6,69.5,29.24,SSW,205,3.1,5.8,69,0.00,,,0.00,LWC V2.10 B1813,2013-08-12 14:54:00,
2013-08-12 09:59:00,81.7,70.1,29.24,SW,227,4.9,5.4,68,0.00,,,0.00,LWC V2.10 B1813,2013-08-12 14:59:00,
2013-08-12 10:04:00,82.4,70.3,29.24,SSW,203,3.1,6.3,67,0.00,,,0.00,LWC V2.10 B1813,2013-08-12 15:04:00,
2013-08-12 10:09:00,82.2,69.7,29.24,West,263,8.3,8.3,66,0.00,,,0.00,LWC V2.10 B1813,2013-08-12 15:09:00,
2013-08-12 10:14:00,81.7,69.6,29.24,SW,224,3.6,5.8,67,0.00,,,0.00,LWC V2.10 B1813,2013-08-12 15:14:00,
2013-08-12 10:19:00,82.2,69.7,29.24,WSW,248,4.0,8.7,66,0.00,,,0.00,LWC V2.10 B1813,2013-08-12 15:19:00,
2013-08-12 10:24:00,83.5,70.4,29.24,WSW,252,6.7,6.7,65,0.00,,,0.00,LWC V2.10 B1813,2013-08-12 15:24:00,
2013-08-12 10:29:00,82.2,69.3,29.24,SW,230,3.6,5.8,65,0.00,,,0.00,LWC V2.10 B1813,2013-08-12 15:29:00,
2013-08-12 10:34:00,82.4,69.4,29.24,SW,231,3.6,7.6,65,0.00,,,0.00,LWC V2.10 B1813,2013-08-12 15:34:00,
2013-08-12 10:39:00,81.9,68.5,29.24,South,189,2.7,5.8,64,0.00,,,0.00,LWC V2.10 B1813,2013-08-12 15:39:00,
2013-08-12 10:44:00,82.8,69.3,29.24,SSW,203,3.1,5.4,64,0.00,,,0.00,LWC V2.10 B1813,2013-08-12 15:44:00,
2013-08-12 10:49:00,82.8,68.8,29.24,South,190,0.0,3.6,63,0.00,,,0.00,LWC V2.10 B1813,2013-08-12 15:49:00,
2013-08-12 10:54:00,84.0,70.0,29.24,West,264,4.0,6.3,63,0.00,,,0.00,LWC V2.10 B1813,2013-08-12 15:54:00,
2013-08-12 10:59:00,84.0,69.1,29.24,West,270,4.0,8.1,61,0.00,,,0.00,LWC V2.10 B1813,2013-08-12 15:59:00,
2013-08-12 11:04:00,84.2,69.3,29.24,NNW,330,2.7,5.4,61,0.00,,,0.00,LWC V2.10 B1813,2013-08-12 16:04:00,
2013-08-12 11:09:00,85.1,69.6,29.24,WSW,240,4.0,4.0,60,0.00,,,0.00,LWC V2.10 B1813,2013-08-12 16:09:00,
2013-08-12 11:14:00,85.1,68.6,29.24,SSW,212,4.0,4.5,58,0.00,,,0.00,LWC V2.10 B1813,2013-08-12 16:14:00,
2013-08-12 11:19:00,85.3,68.8,29.24,SW,232,3.1,5.4,58,0.00,,,0.00,LWC V2.10 B1813,2013-08-12 16:19:00,
2013-08-12 11:24:00,84.7,68.3,29.24,WSW,258,4.0,5.8,58,0.00,,,0.00,LWC V2.10 B1813,2013-08-12 16:24:00,
2013-08-12 11:29:00,85.1,68.6,29.24,WNW,290,4.0,4.0,58,0.00,,,0.00,LWC V2.10 B1813,2013-08-12 16:29:00,
2013-08-12 11:34:00,86.2,69.1,29.24,WSW,256,4.0,5.8,57,0.00,,,0.00,LWC V2.10 B1813,2013-08-12 16:34:00,
2013-08-12 11:39:00,85.5,67.9,29.24,SSW,195,3.1,6.3,56,0.00,,,0.00,LWC V2.10 B1813,2013-08-12 16:39:00,
2013-08-12 11:44:00,86.9,68.2,29.24,WSW,249,6.3,8.1,54,0.00,,,0.00,LWC V2.10 B1813,2013-08-12 16:44:00,
2013-08-12 11:49:00,87.1,67.8,29.24,WSW,258,7.6,8.1,53,0.00,,,0.00,LWC V2.10 B1813,2013-08-12 16:49:00,
2013-08-12 11:54:00,86.9,67.7,29.24,South,189,4.5,4.5,53,0.00,,,0.00,LWC V2.10 B1813,2013-08-12 16:54:00,
2013-08-12 11:59:00,87.3,66.3,29.24,WNW,292,5.8,5.8,50,0.00,,,0.00,LWC V2.10 B1813,2013-08-12 16:59:00,
2013-08-12 12:04:00,86.9,66.6,29.24,SSW,211,4.9,4.9,51,0.00,,,0.00,LWC V2.10 B1813,2013-08-12 17:04:00,
2013-08-12 12:09:00,87.1,66.1,29.24,South,191,4.5,4.9,50,0.00,,,0.00,LWC V2.10 B1813,2013-08-12 17:09:00,
2013-08-12 12:14:00,87.6,66.1,29.24,SW,220,3.1,4.5,49,0.00,,,0.00,LWC V2.10 B1813,2013-08-12 17:14:00,
2013-08-12 12:19:00,87.8,64.4,29.24,SW,217,3.6,7.6,46,0.00,,,0.00,LWC V2.10 B1813,2013-08-12 17:19:00,
2013-08-12 12:24:00,87.3,64.5,29.24,WSW,246,4.0,8.7,47,0.00,,,0.00,LWC V2.10 B1813,2013-08-12 17:24:00,
2013-08-12 12:29:00,88.2,64.7,29.24,SSE,163,2.7,7.6,46,0.00,,,0.00,LWC V2.10 B1813,2013-08-12 17:29:00,
2013-08-12 12:34:00,88.3,64.3,29.24,South,183,6.3,8.7,45,0.00,,,0.00,LWC V2.10 B1813,2013-08-12 17:34:00,
2013-08-12 12:39:00,88.9,65.4,29.24,SSE,153,3.6,5.8,46,0.00,,,0.00,LWC V2.10 B1813,2013-08-12 17:39:00,
2013-08-12 12:44:00,89.8,64.3,29.24,SW,225,5.4,5.4,43,0.00,,,0.00,LWC V2.10 B1813,2013-08-12 17:44:00,
2013-08-12 12:49:00,90.3,64.1,29.20,South,180,4.9,8.3,42,0.00,,,0.00,LWC V2.10 B1813,2013-08-12 17:49:00,
2013-08-12 12:54:00,89.6,63.4,29.20,SSE,158,5.8,8.1,42,0.00,,,0.00,LWC V2.10 B1813,2013-08-12 17:54:00,
2013-08-12 12:59:00,88.9,63.4,29.20,SSW,199,4.0,7.2,43,0.00,,,0.00,LWC V2.10 B1813,2013-08-12 17:59:00,
2013-08-12 13:04:00,90.3,64.1,29.20,SSW,206,8.1,8.7,42,0.00,,,0.00,LWC V2.10 B1813,2013-08-12 18:04:00,
2013-08-12 13:09:00,89.8,63.6,29.20,South,175,2.7,6.3,42,0.00,,,0.00,LWC V2.10 B1813,2013-08-12 18:09:00,
2013-08-12 13:14:00,90.5,63.5,29.20,SE,132,3.6,11.0,41,0.00,,,0.00,LWC V2.10 B1813,2013-08-12 18:14:00,
2013-08-12 13:19:00,91.2,64.2,29.20,ESE,120,3.6,5.8,41,0.00,,,0.00,LWC V2.10 B1813,2013-08-12 18:19:00,
2013-08-12 13:24:00,91.0,64.0,29.20,SSE,154,4.9,4.9,41,0.00,,,0.00,LWC V2.10 B1813,2013-08-12 18:24:00,
2013-08-12 13:29:00,90.9,63.9,29.20,South,182,11.0,11.4,41,0.00,,,0.00,LWC V2.10 B1813,2013-08-12 18:29:00,
2013-08-12 13:34:00,91.9,64.8,29.20,NNE,21,2.2,2.2,41,0.00,,,0.00,LWC V2.10 B1813,2013-08-12 18:34:00,
2013-08-12 13:39:00,92.8,64.9,29.20,WNW,292,3.6,6.7,40,0.00,,,0.00,LWC V2.10 B1813,2013-08-12 18:39:00,
2013-08-12 13:44:00,93.0,64.3,29.20,ENE,68,4.5,7.6,39,0.00,,,0.00,LWC V2.10 B1813,2013-08-12 18:44:00,
2013-08-12 13:49:00,92.7,64.0,29.20,SSE,163,4.5,11.0,39,0.00,,,0.00,LWC V2.10 B1813,2013-08-12 18:49:00,
2013-08-12 13:54:00,91.2,62.8,29.20,SSW,196,4.5,8.1,39,0.00,,,0.00,LWC V2.10 B1813,2013-08-12 18:54:00,
2013-08-12 13:59:00,92.1,63.5,29.20,SSE,167,5.8,5.8,39,0.00,,,0.00,LWC V2.10 B1813,2013-08-12 18:59:00,
2013-08-12 14:04:00,92.7,64.0,29.20,SW,214,5.4,6.3,39,0.00,,,0.00,LWC V2.10 B1813,2013-08-12 19:04:00,
2013-08-12 14:09:00,92.1,63.5,29.20,SW,226,3.6,6.3,39,0.00,,,0.00,LWC V2.10 B1813,2013-08-12 19:09:00,
2013-08-12 14:14:00,93.0,64.3,29.20,ENE,76,6.3,8.1,39,0.00,,,0.00,LWC V2.10 B1813,2013-08-12 19:14:00,
2013-08-12 14:19:00,93.2,63.8,29.20,SSW,202,7.6,8.7,38,0.00,,,0.00,LWC V2.10 B1813,2013-08-12 19:19:00,
2013-08-12 14:24:00,93.2,63.8,29.20,South,170,3.1,3.6,38,0.00,,,0.00,LWC V2.10 B1813,2013-08-12 19:24:00,
2013-08-12 14:29:00,93.6,64.1,29.20,WNW,284,3.6,7.6,38,0.00,,,0.00,LWC V2.10 B1813,2013-08-12 19:29:00,
2013-08-12 14:34:00,94.3,64.0,29.20,SSW,198,3.1,8.3,37,0.00,,,0.00,LWC V2.10 B1813,2013-08-12 19:34:00,
2013-08-12 14:39:00,93.7,64.2,29.20,South,170,0.0,2.7,38,0.00,,,0.00,LWC V2.10 B1813,2013-08-12 19:39:00,
2013-08-12 14:44:00,94.8,64.4,29.20,ENE,73,4.0,6.3,37,0.00,,,0.00,LWC V2.10 B1813,2013-08-12 19:44:00,
2013-08-12 14:49:00,93.7,62.7,29.18,South,176,5.4,11.0,36,0.00,,,0.00,LWC V2.10 B1813,2013-08-12 19:49:00,
2013-08-12 14:54:00,93.2,63.0,29.18,ESE,114,5.4,8.3,37,0.00,,,0.00,LWC V2.10 B1813,2013-08-12 19:54:00,
2013-08-12 14:59:00,94.3,64.0,29.18,SE,130,4.9,5.4,37,0.00,,,0.00,LWC V2.10 B1813,2013-08-12 19:59:00,
2013-08-12 15:04:00,95.9,64.6,29.18,SSW,195,3.6,7.6,36,0.00,,,0.00,LWC V2.10 B1813,2013-08-12 20:04:00,
2013-08-12 15:09:00,94.5,64.1,29.18,SSW,211,6.3,6.3,37,0.00,,,0.00,LWC V2.10 B1813,2013-08-12 20:09:00,
2013-08-12 15:14:00,93.9,63.6,29.18,SSE,163,5.8,5.8,37,0.00,,,0.00,LWC V2.10 B1813,2013-08-12 20:14:00,
2013-08-12 15:19:00,95.4,64.9,29.18,SE,141,5.4,5.8,37,0.00,,,0.00,LWC V2.10 B1813,2013-08-12 20:19:00,
2013-08-12 15:24:00,94.5,64.1,29.18,ESE,120,4.9,5.8,37,0.00,,,0.00,LWC V2.10 B1813,2013-08-12 20:24:00,
2013-08-12 15:29:00,95.5,64.3,29.18,ESE,115,5.8,8.7,36,0.00,,,0.00,LWC V2.10 B1813,2013-08-12 20:29:00,
2013-08-12 15:34:00,96.1,63.9,29.18,SSE,154,5.8,8.3,35,0.00,,,0.00,LWC V2.10 B1813,2013-08-12 20:34:00,
2013-08-12 15:39:00,94.1,63.0,29.18,SE,143,4.9,8.7,36,0.00,,,0.00,LWC V2.10 B1813,2013-08-12 20:39:00,
2013-08-12 15:44:00,93.7,62.7,29.18,SSE,168,3.6,6.3,36,0.00,,,0.00,LWC V2.10 B1813,2013-08-12 20:44:00,
2013-08-12 15:49:00,95.4,63.3,29.18,SSW,196,8.3,11.0,35,0.00,,,0.00,LWC V2.10 B1813,2013-08-12 20:49:00,
2013-08-12 15:54:00,94.5,61.7,29.18,South,186,6.3,8.7,34,0.00,,,0.00,LWC V2.10 B1813,2013-08-12 20:54:00,
2013-08-12 15:59:00,95.0,62.2,29.18,WNW,293,4.0,8.1,34,0.00,,,0.00,LWC V2.10 B1813,2013-08-12 20:59:00,
2013-08-12 16:04:00,95.7,62.8,29.18,South,169,8.3,10.5,34,0.00,,,0.00,LWC V2.10 B1813,2013-08-12 21:04:00,
2013-08-12 16:09:00,95.4,62.5,29.18,SSW,196,5.8,8.7,34,0.00,,,0.00,LWC V2.10 B1813,2013-08-12 21:09:00,
2013-08-12 16:14:00,94.1,61.4,29.18,South,169,11.0,14.5,34,0.00,,,0.00,LWC V2.10 B1813,2013-08-12 21:14:00,
2013-08-12 16:19:00,95.0,62.2,29.15,SSW,198,6.3,6.3,34,0.00,,,0.00,LWC V2.10 B1813,2013-08-12 21:19:00,
2013-08-12 16:24:00,95.5,61.8,29.15,South,175,11.0,11.0,33,0.00,,,0.00,LWC V2.10 B1813,2013-08-12 21:24:00,
2013-08-12 16:29:00,95.4,62.5,29.15,SW,221,5.4,12.3,34,0.00,,,0.00,LWC V2.10 B1813,2013-08-12 21:29:00,
2013-08-12 16:34:00,94.1,61.4,29.15,SE,139,4.0,6.3,34,0.00,,,0.00,LWC V2.10 B1813,2013-08-12 21:34:00,
2013-08-12 16:39:00,95.0,62.2,29.15,South,191,4.0,5.8,34,0.00,,,0.00,LWC V2.10 B1813,2013-08-12 21:39:00,
2013-08-12 16:44:00,96.1,62.3,29.15,South,187,6.7,8.3,33,0.00,,,0.00,LWC V2.10 B1813,2013-08-12 21:44:00,
2013-08-12 16:49:00,95.9,62.1,29.15,South,180,6.3,8.1,33,0.00,,,0.00,LWC V2.10 B1813,2013-08-12 21:49:00,
2013-08-12 16:54:00,96.3,62.4,29.15,ESE,117,7.2,8.1,33,0.00,,,0.00,LWC V2.10 B1813,2013-08-12 21:54:00,
2013-08-12 16:59:00,95.7,62.0,29.15,SSE,148,6.3,8.7,33,0.00,,,0.00,LWC V2.10 B1813,2013-08-12 21:59:00,
2013-08-12 17:04:00,96.4,62.6,29.15,SE,141,8.1,8.1,33,0.00,,,0.00,LWC V2.10 B1813,2013-08-12 22:04:00,
2013-08-12 17:09:00,95.7,62.0,29.15,SSE,168,3.6,8.7,33,0.00,,,0.00,LWC V2.10 B1813,2013-08-12 22:09:00,
2013-08-12 17:14:00,96.4,62.6,29.15,SW,222,10.5,10.5,33,0.00,,,0.00,LWC V2.10 B1813,2013-08-12 22:14:00,
2013-08-12 17:19:00,95.7,61.1,29.15,South,183,8.7,10.1,32,0.00,,,0.00,LWC V2.10 B1813,2013-08-12 22:19:00,
2013-08-12 17:24:00,96.1,61.4,29.15,SSE,156,4.9,7.6,32,0.00,,,0.00,LWC V2.10 B1813,2013-08-12 22:24:00,
2013-08-12 17:29:00,95.9,61.2,29.15,SW,226,7.6,7.6,32,0.00,,,0.00,LWC V2.10 B1813,2013-08-12 22:29:00,
2013-08-12 17:34:00,95.7,61.1,29.15,SSW,205,7.6,11.0,32,0.00,,,0.00,LWC V2.10 B1813,2013-08-12 22:34:00,
2013-08-12 17:39:00,95.7,61.1,29.15,South,186,4.0,11.4,32,0.00,,,0.00,LWC V2.10 B1813,2013-08-12 22:39:00,
2013-08-12 17:44:00,95.9,61.2,29.15,South,175,6.7,10.1,32,0.00,,,0.00,LWC V2.10 B1813,2013-08-12 22:44:00,
2013-08-12 17:49:00,95.4,60.8,29.12,SSE,167,8.7,8.7,32,0.00,,,0.00,LWC V2.10 B1813,2013-08-12 22:49:00,
2013-08-12 17:54:00,95.4,60.8,29.12,South,178,5.4,10.5,32,0.00,,,0.00,LWC V2.10 B1813,2013-08-12 22:54:00,
2013-08-12 17:59:00,94.1,59.7,29.12,South,188,8.1,8.1,32,0.00,,,0.00,LWC V2.10 B1813,2013-08-12 22:59:00,
2013-08-12 18:04:00,94.6,60.1,29.12,South,190,8.3,8.3,32,0.00,,,0.00,LWC V2.10 B1813,2013-08-12 23:04:00,
2013-08-12 18:09:00,95.2,60.6,29.12,South,173,8.7,10.5,32,0.00,,,0.00,LWC V2.10 B1813,2013-08-12 23:09:00,
2013-08-12 18:14:00,95.2,60.6,29.12,South,184,8.1,8.3,32,0.00,,,0.00,LWC V2.10 B1813,2013-08-12 23:14:00,
2013-08-12 18:20:00,94.8,60.3,29.12,SW,223,10.1,12.8,32,0.00,,,0.00,LWC V2.10 B1813,2013-08-12 23:20:00,
2013-08-12 18:25:00,95.2,60.6,29.12,SSE,166,7.6,10.1,32,0.00,,,0.00,LWC V2.10 B1813,2013-08-12 23:25:00,
2013-08-12 18:30:00,95.4,60.8,29.12,SSE,165,7.6,7.6,32,0.00,,,0.00,LWC V2.10 B1813,2013-08-12 23:30:00,
2013-08-12 18:35:00,94.8,60.3,29.12,SW,216,7.6,8.3,32,0.00,,,0.00,LWC V2.10 B1813,2013-08-12 23:35:00,
2013-08-12 18:40:00,94.8,60.3,29.12,SSE,166,7.6,8.3,32,0.00,,,0.00,LWC V2.10 B1813,2013-08-12 23:40:00,
2013-08-12 18:45:00,94.8,60.3,29.12,South,183,5.4,5.8,32,0.00,,,0.00,LWC V2.10 B1813,2013-08-12 23:45:00,
2013-08-12 18:50:00,94.8,60.3,29.09,SSE,160,8.1,8.7,32,0.00,,,0.00,LWC V2.10 B1813,2013-08-12 23:50:00,
2013-08-12 18:55:00,94.8,60.3,29.09,South,187,6.3,8.1,32,0.00,,,0.00,LWC V2.10 B1813,2013-08-12 23:55:00,
2013-08-12 19:00:00,94.3,59.8,29.09,South,178,6.3,8.3,32,0.00,,,0.00,LWC V2.10 B1813,2013-08-13 00:00:00,
2013-08-12 19:05:00,94.1,59.7,29.12,South,172,10.1,12.8,32,0.00,,,0.00,LWC V2.10 B1813,2013-08-13 00:05:00,
2013-08-12 19:10:00,93.7,60.2,29.12,South,174,5.4,11.0,33,0.00,,,0.00,LWC V2.10 B1813,2013-08-13 00:10:00,
2013-08-12 19:15:00,93.7,60.2,29.12,SSW,204,5.8,11.0,33,0.00,,,0.00,LWC V2.10 B1813,2013-08-13 00:15:00,
2013-08-12 19:20:00,93.6,60.1,29.12,South,181,3.6,8.1,33,0.00,,,0.00,LWC V2.10 B1813,2013-08-13 00:20:00,
2013-08-12 19:25:00,93.6,60.1,29.12,SSW,192,6.3,8.3,33,0.00,,,0.00,LWC V2.10 B1813,2013-08-13 00:25:00,
2013-08-12 19:30:00,93.4,60.8,29.12,South,178,6.3,7.6,34,0.00,,,0.00,LWC V2.10 B1813,2013-08-13 00:30:00,
2013-08-12 19:35:00,93.0,60.4,29.12,SSE,155,8.1,11.0,34,0.00,,,0.00,LWC V2.10 B1813,2013-08-13 00:35:00,
2013-08-12 19:40:00,92.8,60.3,29.12,SSE,165,5.4,7.6,34,0.00,,,0.00,LWC V2.10 B1813,2013-08-13 00:40:00,
2013-08-12 19:45:00,92.8,61.1,29.12,SE,132,6.7,6.7,35,0.00,,,0.00,LWC V2.10 B1813,2013-08-13 00:45:00,
2013-08-12 19:50:00,92.5,60.8,29.12,SE,140,5.4,8.1,35,0.00,,,0.00,LWC V2.10 B1813,2013-08-13 00:50:00,
2013-08-12 19:55:00,92.3,60.6,29.12,SSE,152,3.1,7.6,35,0.00,,,0.00,LWC V2.10 B1813,2013-08-13 00:55:00,
2013-08-12 20:00:00,91.9,60.3,29.12,South,178,4.0,6.3,35,0.00,,,0.00,LWC V2.10 B1813,2013-08-13 01:00:00,
2013-08-12 20:05:00,91.8,60.2,29.12,South,171,5.4,6.7,35,0.00,,,0.00,LWC V2.10 B1813,2013-08-13 01:05:00,
2013-08-12 20:10:00,91.4,59.8,29.12,SSE,161,4.0,5.4,35,0.00,,,0.00,LWC V2.10 B1813,2013-08-13 01:10:00,
2013-08-12 20:15:00,91.2,60.5,29.12,SSE,167,5.4,6.3,36,0.00,,,0.00,LWC V2.10 B1813,2013-08-13 01:15:00,
2013-08-12 20:20:00,91.0,60.3,29.12,SSW,203,4.0,4.9,36,0.00,,,0.00,LWC V2.10 B1813,2013-08-13 01:20:00,
2013-08-12 20:25:00,90.7,60.8,29.12,SE,136,4.0,5.8,37,0.00,,,0.00,LWC V2.10 B1813,2013-08-13 01:25:00,
2013-08-12 20:30:00,90.3,60.5,29.12,SSE,147,3.6,3.6,37,0.00,,,0.00,LWC V2.10 B1813,2013-08-13 01:30:00,
2013-08-12 20:35:00,90.0,60.1,29.12,SSE,155,2.7,6.3,37,0.00,,,0.00,LWC V2.10 B1813,2013-08-13 01:35:00,
2013-08-12 20:40:00,89.8,60.7,29.12,SSE,153,4.9,6.3,38,0.00,,,0.00,LWC V2.10 B1813,2013-08-13 01:40:00,
2013-08-12 20:45:00,89.8,60.7,29.12,SSE,149,3.1,4.0,38,0.00,,,0.00,LWC V2.10 B1813,2013-08-13 01:45:00,
2013-08-12 20:50:00,89.6,60.6,29.12,SSE,148,3.6,6.3,38,0.00,,,0.00,LWC V2.10 B1813,2013-08-13 01:50:00,
2013-08-12 20:55:00,89.4,60.4,29.12,SSW,195,3.1,5.8,38,0.00,,,0.00,LWC V2.10 B1813,2013-08-13 01:55:00,
2013-08-12 21:00:00,89.4,60.4,29.12,South,174,3.6,5.8,38,0.00,,,0.00,LWC V2.10 B1813,2013-08-13 02:00:00,
2013-08-12 21:05:00,89.2,61.0,29.15,South,182,2.7,5.8,39,0.00,,,0.00,LWC V2.10 B1813,2013-08-13 02:05:00,
2013-08-12 21:10:00,89.1,60.8,29.15,SE,136,4.0,4.0,39,0.00,,,0.00,LWC V2.10 B1813,2013-08-13 02:10:00,
2013-08-12 21:15:00,88.9,60.7,29.15,SE,141,3.6,3.6,39,0.00,,,0.00,LWC V2.10 B1813,2013-08-13 02:15:00,
2013-08-12 21:20:00,88.9,60.7,29.15,SE,131,3.1,5.8,39,0.00,,,0.00,LWC V2.10 B1813,2013-08-13 02:20:00,
2013-08-12 21:25:00,88.7,60.5,29.15,South,173,0.0,5.4,39,0.00,,,0.00,LWC V2.10 B1813,2013-08-13 02:25:00,
2013-08-12 21:30:00,88.5,60.4,29.15,SSE,153,2.7,6.7,39,0.00,,,0.00,LWC V2.10 B1813,2013-08-13 02:30:00,
2013-08-12 21:35:00,88.2,60.0,29.15,SE,138,3.6,5.4,39,0.00,,,0.00,LWC V2.10 B1813,2013-08-13 02:35:00,
2013-08-12 21:40:00,88.2,60.0,29.15,SE,139,3.6,5.8,39,0.00,,,0.00,LWC V2.10 B1813,2013-08-13 02:40:00,
2013-08-12 21:45:00,88.2,60.8,29.15,SSE,150,4.9,4.9,40,0.00,,,0.00,LWC V2.10 B1813,2013-08-13 02:45:00,
2013-08-12 21:50:00,88.2,60.8,29.15,South,175,3.1,4.9,40,0.00,,,0.00,LWC V2.10 B1813,2013-08-13 02:50:00,
2013-08-12 21:55:00,88.2,60.8,29.15,ESE,122,3.6,4.0,40,0.00,,,0.00,LWC V2.10 B1813,2013-08-13 02:55:00,
2013-08-12 22:00:00,88.0,60.6,29.15,SE,132,3.6,3.6,40,0.00,,,0.00,LWC V2.10 B1813,2013-08-13 03:00:00,
2013-08-12 22:05:00,88.0,61.3,29.15,SE,146,3.6,6.3,41,0.00,,,0.00,LWC V2.10 B1813,2013-08-13 03:05:00,
2013-08-12 22:10:00,88.0,61.3,29.15,SE,146,3.6,6.3,41,0.00,,,0.00,LWC V2.10 B1813,2013-08-13 03:10:00,
2013-08-12 22:15:00,87.8,61.1,29.15,SSE,165,3.1,5.4,41,0.00,,,0.00,LWC V2.10 B1813,2013-08-13 03:15:00,
2013-08-12 22:20:00,87.8,61.1,29.15,South,183,4.0,4.0,41,0.00,,,0.00,LWC V2.10 B1813,2013-08-13 03:20:00,
2013-08-12 22:26:00,87.6,61.6,29.15,South,173,3.6,5.4,42,0.00,,,0.00,LWC V2.10 B1813,2013-08-13 03:26:00,
2013-08-12 22:31:00,87.8,61.1,29.15,South,173,5.4,8.7,41,0.00,,,0.00,LWC V2.10 B1813,2013-08-13 03:31:00,
2013-08-12 22:36:00,88.0,62.0,29.18,SSE,165,7.6,9.2,42,0.00,,,0.00,LWC V2.10 B1813,2013-08-13 03:36:00,
2013-08-12 22:41:00,87.8,61.8,29.18,ESE,117,5.8,11.0,42,0.00,,,0.00,LWC V2.10 B1813,2013-08-13 03:41:00,
2013-08-12 22:46:00,87.4,62.2,29.18,SSE,147,4.9,8.1,43,0.00,,,0.00,LWC V2.10 B1813,2013-08-13 03:46:00,
2013-08-12 22:53:00,87.3,62.6,29.18,SSE,161,5.8,7.6,44,0.00,,,0.00,LWC V2.10 B1813,2013-08-13 03:53:00,
2013-08-12 22:58:00,87.1,63.1,29.18,South,174,3.1,6.3,45,0.00,,,0.00,LWC V2.10 B1813,2013-08-13 03:58:00,
2013-08-12 23:01:00,87.1,63.1,29.18,SE,146,5.8,5.8,45,0.00,,,0.00,LWC V2.10 B1813,2013-08-13 04:01:00,
2013-08-12 23:06:00,87.1,63.8,29.18,ESE,116,3.1,8.7,46,0.00,,,0.00,LWC V2.10 B1813,2013-08-13 04:06:00,
2013-08-12 23:11:00,87.1,63.8,29.18,South,175,4.9,8.1,46,0.00,,,0.00,LWC V2.10 B1813,2013-08-13 04:11:00,
2013-08-12 23:16:00,86.7,63.4,29.18,South,179,4.0,6.3,46,0.00,,,0.00,LWC V2.10 B1813,2013-08-13 04:16:00,
2013-08-12 23:21:00,86.5,63.3,29.18,SSW,193,7.6,8.1,46,0.00,,,0.00,LWC V2.10 B1813,2013-08-13 04:21:00,
2013-08-12 23:26:00,86.5,63.9,29.18,East,79,11.0,11.0,47,0.00,,,0.00,LWC V2.10 B1813,2013-08-13 04:26:00,
2013-08-12 23:31:00,86.4,64.3,29.18,South,169,8.7,8.7,48,0.00,,,0.00,LWC V2.10 B1813,2013-08-13 04:31:00,
2013-08-12 23:36:00,86.2,64.7,29.15,SSE,165,12.3,12.3,49,0.00,,,0.00,LWC V2.10 B1813,2013-08-13 04:36:00,
2013-08-12 23:41:00,86.2,65.9,29.15,SSE,164,8.7,9.6,51,0.00,,,0.00,LWC V2.10 B1813,2013-08-13 04:41:00,
2013-08-12 23:46:00,86.0,66.3,29.15,SSE,164,5.4,9.6,52,0.00,,,0.00,LWC V2.10 B1813,2013-08-13 04:46:00,
2013-08-12 23:51:00,85.8,66.7,29.15,SSW,193,7.2,8.7,53,0.00,,,0.00,LWC V2.10 B1813,2013-08-13 04:51:00,
2013-08-12 23:56:00,85.5,66.3,29.15,East,84,5.4,6.3,53,0.00,,,0.00,LWC V2.10 B1813,2013-08-13 04:56:00,